This is the latest recevied weather packets stored in our database for station/object KF5JED-13. If no packets are shown the sender has not sent any weather packets the latest 10 day(s).
| Time | Temp. | Humidity | Pressure | Rain* | Wind** | Luminosity | Snow |
|---|---|---|---|---|---|---|---|
| 1777877106 | 13.89° C | 54% | 1011.7 hPa | 0 mm | - | 0 W/m² | - |
| 1777876803 | 13.89° C | 54% | 1011.5 hPa | 0 mm | - | 0 W/m² | - |
| 1777876501 | 13.89° C | 54% | 1011.5 hPa | 0 mm | - | 0 W/m² | - |
| 1777876196 | 13.33° C | 54% | 1011.6 hPa | 0 mm | - | 0 W/m² | - |
| 1777875893 | 13.33° C | 53% | 1011.7 hPa | 0 mm | - | 0 W/m² | - |
| 1777875589 | 13.33° C | 53% | 1011.6 hPa | 0 mm | - | 0 W/m² | - |
| 1777875286 | 13.33° C | 52% | 1011.5 hPa | 0 mm | - | 0 W/m² | - |
| 1777874983 | 13.33° C | 51% | 1011.8 hPa | 0 mm | - | 0 W/m² | - |
| 1777874679 | 13.33° C | 51% | 1011.5 hPa | 0 mm | - | 0 W/m² | - |
| 1777874376 | 13.33° C | 51% | 1011.6 hPa | 0 mm | - | 0 W/m² | - |
| 1777874074 | 12.78° C | 51% | 1011.6 hPa | 0 mm | - | 0 W/m² | - |
| 1777873772 | 12.78° C | 51% | 1011.6 hPa | 0 mm | - | 0 W/m² | - |
| 1777873468 | 13.33° C | 50% | 1011.7 hPa | 0 mm | - | 0 W/m² | - |
| 1777873165 | 12.78° C | 51% | 1011.8 hPa | 0 mm | - | 0 W/m² | - |
| 1777872861 | 12.78° C | 51% | 1011.7 hPa | 0 mm | - | 0 W/m² | - |
| 1777872560 | 12.78° C | 50% | 1011.7 hPa | 0 mm | - | 0 W/m² | - |
| 1777872256 | 12.78° C | 50% | 1011.8 hPa | 0 mm | - | 0 W/m² | - |
| 1777871954 | 12.78° C | 50% | 1012 hPa | 0 mm | - | 0 W/m² | - |
| 1777871650 | 13.33° C | 49% | 1012.2 hPa | 0 mm | - | 0 W/m² | - |
| 1777871347 | 13.33° C | 49% | 1011.9 hPa | 0 mm | - | 0 W/m² | - |
| 1777871044 | 13.33° C | 48% | 1012.1 hPa | 0 mm | - | 0 W/m² | - |
| 1777870741 | 13.89° C | 48% | 1012.2 hPa | 0 mm | - | 0 W/m² | - |
| 1777870436 | 13.89° C | 47% | 1012.2 hPa | 0 mm | - | 0 W/m² | - |
| 1777870133 | 14.44° C | 46% | 1012 hPa | 0 mm | - | 0 W/m² | - |
| 1777869830 | 15° C | 45% | 1012.1 hPa | 0 mm | - | 0 W/m² | - |
* Rain latest hour (hover to see other rain measurements)
** Current wind speed in m/s (hover to see current wind gust speed)